Home > Weather > Hohhot > Past weeks

Flag for China Past Weather in Hohhot, Inner Mongolia, China — Yesterday and Last 2 Weeks

Now
55 °F

Passing clouds.


Feels Like: 54 °F
Forecast: 52 / 84 °F
Wind: 6 mph from Northeast

Location: Hohhot Airport

Current Time: Jul 2, 2016 at 4:51:46 AM

Latest Report: Jul 2, 2016 at 4:00 AM


Visibility: N/A

Pressure: 29.83 "Hg (26.31 "Hg at 1053m altitude)

Humidity: 67%

Dew Point: 45 °F

Location of HohhotLocation

Past Weather in Hohhot — Graph

°F

Hohhot Temperature Yesterday

Maximum temperature yesterday: 79 °F (at 4:00 PM)
Minimum temperature yesterday: 57 °F (at 4:00 AM)
Average temperature yesterday: 68 °F

High & Low Weather Summary for the Past Weeks

 TemperatureHumidityPressure
High86 °F (Jun 21, 4:00 PM)94% (Jun 21, 3:00 AM)30.07 "Hg (Jun 21, 3:00 AM)
Low52 °F (Jun 24, 5:00 AM)17% (Jun 18, 6:00 PM)29.56 "Hg (Jun 17, 3:00 AM)
Average69 °F53%29.81 "Hg
* Reported Jun 17 3:00 AM — Jul 2 3:00 AM, Hohhot, Weather by CustomWeather, © 2016

Note: Actual official high and low records may vary slightly from our data, if they occured in-between our weather recording intervals... More about our weather records

Advertising

Hohhot Weather History for the Previous 24 Hours

Scroll right to see more
 ConditionsComfort  
Time TempWeatherWind HumidityBarometerVisibility
3:00 AM
Sat, Jul 2
55 °FClear.3 mph67%29.83 "Hg10 mi
2:00 AM59 °FClear.6 mph59%29.83 "Hg10 mi
1:00 AM59 °FClear.6 mph63%29.83 "Hg10 mi
12:00 AM61 °FPassing clouds.3 mph59%29.83 "HgN/A
11:00 PM
Fri, Jul 1
64 °FPassing clouds.6 mph46%29.83 "HgN/A
10:00 PM64 °FClear.8 mph49%29.83 "Hg10 mi
9:00 PM68 °FPassing clouds.6 mph40%29.80 "HgN/A
8:00 PM73 °FPassing clouds.6 mph33%29.77 "HgN/A
7:00 PM77 °FPassing clouds.6 mph26%29.77 "HgN/A
6:00 PM75 °FPassing clouds.1 mph29%29.77 "HgN/A
5:00 PM77 °FScattered clouds.3 mph30%29.77 "HgN/A
4:00 PM79 °FScattered clouds.1 mph30%29.77 "HgN/A
3:00 PM77 °FScattered clouds.6 mph34%29.77 "HgN/A
2:00 PM77 °FScattered clouds.6 mph34%29.77 "HgN/A
1:00 PM73 °FScattered clouds.8 mph36%29.80 "HgN/A
12:00 PM73 °FScattered clouds.8 mph36%29.80 "HgN/A
11:00 AM73 °FPassing clouds.10 mph41%29.83 "HgN/A
10:00 AM73 °FPassing clouds.13 mph36%29.83 "HgN/A
9:00 AM70 °FPassing clouds.6 mph46%29.83 "HgN/A
8:00 AM64 °FPassing clouds.3 mph60%29.83 "HgN/A
7:00 AM63 °FSunny.3 mph64%29.83 "Hg10 mi
6:00 AM61 °FSunny.1 mph72%29.83 "Hg10 mi
5:00 AM57 °FClear.3 mph77%29.83 "Hg10 mi
4:00 AM57 °FClear.3 mph77%29.83 "Hg10 mi
Weather by CustomWeather, © 2016

See weather overviewHow to use our weather pages